| time (UTC) | temp F | wind direction | speed MPH | gust MPH | rain 1hr in | rain 24hr in | rain mn in | humidity % | barometer mb |
| 20260506154503 | 58 | 317 | 2.0 | 6.0 | 0.00 | 0.22 | 0.21 | 76 | 1014.9 |
| 20260506154003 | 59 | 300 | 2.0 | 6.0 | 0.00 | 0.23 | 0.21 | 75 | 1015.1 |
| 20260506153503 | 59 | 299 | 2.0 | 4.0 | 0.00 | 0.24 | 0.21 | 76 | 1015.0 |
| 20260506153003 | 58 | 223 | 2.0 | 6.0 | 0.00 | 0.24 | 0.21 | 79 | 1015.0 |
| 20260506152503 | 58 | 202 | 2.0 | 6.0 | 0.00 | 0.25 | 0.21 | 81 | 1014.9 |
| 20260506152017 | 58 | 216 | 2.0 | 5.0 | 0.00 | 0.25 | 0.21 | 82 | 1014.9 |
| 20260506151503 | 57 | 215 | 2.0 | 6.0 | 0.00 | 0.25 | 0.21 | 81 | 1015.0 |
| 20260506151003 | 57 | 215 | 3.0 | 8.0 | 0.00 | 0.25 | 0.21 | 81 | 1015.0 |
| 20260506150503 | 57 | 216 | 3.0 | 8.0 | 0.00 | 0.25 | 0.21 | 81 | 1015.0 |
| 20260506150003 | 57 | 219 | 2.0 | 5.0 | 0.00 | 0.26 | 0.21 | 82 | 1015.0 |
| 20260506145517 | 57 | 207 | 2.0 | 5.0 | 0.00 | 0.26 | 0.21 | 82 | 1015.0 |
| 20260506145017 | 57 | 223 | 2.0 | 6.0 | 0.00 | 0.27 | 0.21 | 81 | 1015.1 |
| 20260506144503 | 57 | 256 | 2.0 | 6.0 | 0.00 | 0.28 | 0.21 | 81 | 1015.1 |
| 20260506144003 | 57 | 262 | 2.0 | 7.0 | 0.00 | 0.28 | 0.21 | 80 | 1015.1 |
| 20260506143517 | 57 | 258 | 2.0 | 7.0 | 0.00 | 0.28 | 0.21 | 81 | 1015.2 |
| 20260506143003 | 57 | 249 | 2.0 | 7.0 | 0.00 | 0.28 | 0.21 | 80 | 1015.2 |
| 20260506142503 | 57 | 239 | 3.0 | 7.0 | 0.00 | 0.28 | 0.21 | 80 | 1015.1 |
| 20260506142017 | 57 | 216 | 2.0 | 6.0 | 0.00 | 0.28 | 0.21 | 82 | 1015.2 |
| 20260506141503 | 57 | 196 | 1.0 | 6.0 | 0.00 | 0.28 | 0.21 | 82 | 1015.2 |
| 20260506141003 | 57 | 182 | 2.0 | 5.0 | 0.00 | 0.28 | 0.21 | 85 | 1015.2 |
| 20260506140503 | 56 | 203 | 2.0 | 6.0 | 0.01 | 0.29 | 0.21 | 84 | 1015.3 |
| 20260506140003 | 56 | 234 | 2.0 | 6.0 | 0.01 | 0.30 | 0.21 | 85 | 1015.4 |
| 20260506135503 | 56 | 270 | 3.0 | 8.0 | 0.01 | 0.30 | 0.21 | 85 | 1015.4 |
| 20260506135017 | 56 | 288 | 3.0 | 8.0 | 0.01 | 0.31 | 0.21 | 86 | 1015.3 |
| 20260506134503 | 56 | 289 | 3.0 | 9.0 | 0.01 | 0.31 | 0.21 | 86 | 1015.4 |
| 20260506133517 | 56 | 193 | 2.0 | 7.0 | 0.01 | 0.33 | 0.21 | 87 | 1015.4 |
| 20260506133003 | 56 | 205 | 2.0 | 6.0 | 0.01 | 0.34 | 0.21 | 87 | 1015.2 |
| 20260506132503 | 55 | 193 | 2.0 | 8.0 | 0.01 | 0.35 | 0.21 | 87 | 1015.2 |
| 20260506132003 | 55 | 172 | 4.0 | 9.0 | 0.02 | 0.35 | 0.21 | 87 | 1015.2 |
| 20260506131503 | 55 | 169 | 2.0 | 9.0 | 0.02 | 0.35 | 0.21 | 88 | 1015.2 |
| 20260506131003 | 55 | 173 | 2.0 | 10.0 | 0.02 | 0.35 | 0.21 | 89 | 1015.2 |
| 20260506130503 | 55 | 170 | 3.0 | 10.0 | 0.02 | 0.35 | 0.20 | 89 | 1015.1 |
| 20260506130003 | 55 | 164 | 3.0 | 8.0 | 0.02 | 0.36 | 0.20 | 89 | 1015.1 |
| 20260506125503 | 55 | 160 | 2.0 | 8.0 | 0.02 | 0.37 | 0.20 | 89 | 1015.1 |
| 20260506125003 | 55 | 159 | 2.0 | 9.0 | 0.02 | 0.37 | 0.20 | 89 | 1015.0 |
| 20260506124503 | 55 | 151 | 2.0 | 9.0 | 0.02 | 0.38 | 0.20 | 89 | 1015.0 |
| 20260506124017 | 55 | 171 | 2.0 | 5.0 | 0.02 | 0.38 | 0.20 | 89 | 1015.0 |
| 20260506123503 | 55 | 191 | 3.0 | 6.0 | 0.02 | 0.39 | 0.20 | 89 | 1015.0 |
| 20260506123003 | 55 | 184 | 3.0 | 6.0 | 0.02 | 0.39 | 0.20 | 88 | 1015.0 |
| 20260506122517 | 55 | 161 | 3.0 | 8.0 | 0.02 | 0.39 | 0.20 | 88 | 1015.0 |
| 20260506122003 | 55 | 177 | 3.0 | 8.0 | 0.01 | 0.41 | 0.20 | 87 | 1015.0 |
| 20260506121503 | 55 | 226 | 3.0 | 8.0 | 0.01 | 0.44 | 0.20 | 85 | 1015.0 |
| 20260506121003 | 55 | 230 | 4.0 | 8.0 | 0.00 | 0.43 | 0.19 | 85 | 1015.0 |
| 20260506120503 | 56 | 219 | 4.0 | 10.0 | 0.00 | 0.43 | 0.19 | 84 | 1015.0 |
| 20260506120003 | 56 | 190 | 4.0 | 10.0 | 0.00 | 0.43 | 0.19 | 84 | 1014.9 |
| 20260506115517 | 56 | 164 | 2.0 | 8.0 | 0.00 | 0.43 | 0.19 | 83 | 1014.9 |
| 20260506115003 | 57 | 163 | 1.0 | 7.0 | 0.00 | 0.43 | 0.19 | 83 | 1014.8 |
| 20260506114503 | 57 | 159 | 1.0 | 5.0 | 0.00 | 0.43 | 0.19 | 83 | 1014.8 |
| 20260506114003 | 57 | 157 | 2.0 | 6.0 | 0.00 | 0.43 | 0.19 | 84 | 1014.9 |
| 20260506113503 | 56 | 157 | 2.0 | 6.0 | 0.00 | 0.43 | 0.19 | 83 | 1014.9 |
| 20260506113003 | 56 | 155 | 2.0 | 6.0 | 0.00 | 0.43 | 0.19 | 82 | 1014.9 |
| 20260506112503 | 57 | 162 | 2.0 | 6.0 | 0.00 | 0.43 | 0.19 | 82 | 1015.0 |
| 20260506112003 | 57 | 176 | 2.0 | 6.0 | 0.00 | 0.43 | 0.19 | 81 | 1014.9 |
| 20260506111517 | 57 | 170 | 2.0 | 6.0 | 0.00 | 0.43 | 0.19 | 81 | 1014.8 |
| 20260506111003 | 57 | 161 | 3.0 | 7.0 | 0.00 | 0.43 | 0.19 | 80 | 1014.7 |
| 20260506110503 | 58 | 156 | 4.0 | 8.0 | 0.00 | 0.43 | 0.19 | 81 | 1014.6 |
| 20260506110003 | 57 | 156 | 4.0 | 8.0 | 0.00 | 0.43 | 0.19 | 79 | 1014.6 |
| 20260506105503 | 57 | 167 | 3.0 | 7.0 | 0.00 | 0.43 | 0.19 | 79 | 1014.5 |
| 20260506105017 | 57 | 185 | 3.0 | 11.0 | 0.00 | 0.43 | 0.19 | 79 | 1014.6 |
| 20260506104503 | 57 | 180 | 4.0 | 11.0 | 0.00 | 0.43 | 0.19 | 79 | 1014.6 |
| 20260506104003 | 57 | 164 | 3.0 | 7.0 | 0.00 | 0.43 | 0.19 | 80 | 1014.5 |
| 20260506103503 | 57 | 161 | 2.0 | 7.0 | 0.00 | 0.43 | 0.19 | 80 | 1014.5 |
| 20260506103003 | 57 | 188 | 2.0 | 7.0 | 0.00 | 0.43 | 0.19 | 80 | 1014.5 |
| 20260506102503 | 57 | 204 | 2.0 | 8.0 | 0.00 | 0.43 | 0.19 | 81 | 1014.6 |
| 20260506102017 | 57 | 219 | 3.0 | 8.0 | 0.00 | 0.43 | 0.19 | 81 | 1014.6 |
| 20260506101503 | 57 | 190 | 3.0 | 11.0 | 0.00 | 0.43 | 0.19 | 83 | 1014.5 |
| 20260506101003 | 56 | 186 | 3.0 | 11.0 | 0.00 | 0.43 | 0.19 | 83 | 1014.5 |
| 20260506100503 | 56 | 197 | 2.0 | 7.0 | 0.01 | 0.43 | 0.19 | 85 | 1014.6 |
| 20260506100017 | 55 | 173 | 3.0 | 9.0 | 0.02 | 0.43 | 0.19 | 85 | 1014.6 |
| 20260506095503 | 55 | 169 | 3.0 | 9.0 | 0.02 | 0.43 | 0.19 | 86 | 1014.5 |
| 20260506095003 | 55 | 166 | 4.0 | 8.0 | 0.02 | 0.43 | 0.19 | 86 | 1014.6 |
| 20260506094503 | 55 | 161 | 5.0 | 12.0 | 0.02 | 0.43 | 0.19 | 86 | 1014.6 |
| 20260506094003 | 55 | 160 | 3.0 | 12.0 | 0.02 | 0.43 | 0.19 | 87 | 1014.5 |
| 20260506093503 | 55 | 158 | 1.0 | 6.0 | 0.02 | 0.43 | 0.19 | 88 | 1014.5 |
| 20260506093017 | 54 | 153 | 2.0 | 6.0 | 0.02 | 0.43 | 0.19 | 87 | 1014.5 |
| 20260506092503 | 54 | 151 | 3.0 | 7.0 | 0.02 | 0.43 | 0.19 | 87 | 1014.6 |
| 20260506092003 | 54 | 163 | 2.0 | 7.0 | 0.02 | 0.43 | 0.19 | 87 | 1014.6 |
| 20260506091517 | 54 | 177 | 2.0 | 5.0 | 0.02 | 0.43 | 0.19 | 87 | 1014.6 |
| 20260506091003 | 54 | 173 | 2.0 | 6.0 | 0.02 | 0.43 | 0.19 | 87 | 1014.5 |
| 20260506090503 | 54 | 219 | 2.0 | 7.0 | 0.02 | 0.43 | 0.18 | 87 | 1014.5 |
| 20260506090003 | 54 | 290 | 1.0 | 7.0 | 0.02 | 0.42 | 0.17 | 87 | 1014.5 |
| 20260506085503 | 54 | 307 | 1.0 | 3.0 | 0.03 | 0.42 | 0.17 | 88 | 1014.3 |
| 20260506085003 | 54 | 293 | 1.0 | 5.0 | 0.04 | 0.42 | 0.17 | 88 | 1014.4 |
| 20260506084503 | 54 | 195 | 1.0 | 5.0 | 0.04 | 0.42 | 0.17 | 88 | 1014.3 |
| 20260506084003 | 54 | 192 | 1.0 | 4.0 | 0.04 | 0.42 | 0.17 | 88 | 1014.2 |
| 20260506083503 | 54 | 235 | 1.0 | 4.0 | 0.03 | 0.41 | 0.17 | 88 | 1014.3 |
| 20260506083017 | 53 | 202 | 1.0 | 5.0 | 0.03 | 0.41 | 0.17 | 89 | 1014.3 |
| 20260506082503 | 53 | 181 | 1.0 | 5.0 | 0.03 | 0.41 | 0.17 | 88 | 1014.2 |
| 20260506082003 | 53 | 245 | 1.0 | 5.0 | 0.03 | 0.41 | 0.17 | 89 | 1014.2 |
| 20260506081503 | 53 | 322 | 1.0 | 4.0 | 0.03 | 0.41 | 0.17 | 90 | 1014.3 |
| 20260506081017 | 53 | 241 | 1.0 | 4.0 | 0.03 | 0.41 | 0.17 | 90 | 1014.2 |
| 20260506080503 | 53 | 176 | 1.0 | 4.0 | 0.02 | 0.40 | 0.17 | 90 | 1014.2 |
| 20260506073503 | 53 | 111 | 0.0 | 2.0 | 0.00 | 0.40 | 0.13 | 92 | 1014.1 |
| 20260506073017 | 53 | 111 | 0.0 | 1.0 | 0.00 | 0.41 | 0.13 | 92 | 1013.9 |
| 20260506072503 | 53 | 111 | 0.0 | 2.0 | 0.00 | 0.41 | 0.13 | 92 | 1013.8 |
| 20260506072003 | 53 | 111 | 0.0 | 2.0 | 0.00 | 0.42 | 0.13 | 92 | 1013.9 |
| 20260506071503 | 52 | 111 | 0.0 | 1.0 | 0.00 | 0.42 | 0.13 | 92 | 1013.9 |
| 20260506071003 | 52 | 111 | 0.0 | 2.0 | 0.01 | 0.43 | 0.13 | 92 | 1013.9 |
| 20260506070503 | 52 | 111 | 0.0 | 2.0 | 0.01 | 0.45 | 0.13 | 92 | 1013.8 |
| 20260506062503 | 51 | 80 | 0.0 | 2.0 | 0.01 | 0.52 | 0.13 | 92 | 1013.6 |
| 20260506062017 | 51 | 80 | 0.0 | 2.0 | 0.01 | 0.54 | 0.13 | 92 | 1013.6 |
| 20260506061517 | 51 | 80 | 0.0 | 1.0 | 0.02 | 0.56 | 0.13 | 92 | 1013.5 |
| 20260506061003 | 51 | 80 | 0.0 | 2.0 | 0.02 | 0.57 | 0.13 | 91 | 1013.5 |
| 20260506060503 | 51 | 80 | 0.0 | 2.0 | 0.02 | 0.57 | 0.13 | 91 | 1013.5 |
| 20260506051003 | 51 | 127 | 0.0 | 2.0 | 0.11 | 0.55 | 0.11 | 90 | 1013.3 |
| 20260506050503 | 51 | 157 | 1.0 | 3.0 | 0.11 | 0.55 | 0.11 | 90 | 1013.3 |
| 20260506045003 | 51 | 198 | 1.0 | 2.0 | 0.07 | 0.51 | 0.07 | 89 | 1013.2 |
| 20260506044517 | 51 | 214 | 1.0 | 2.0 | 0.06 | 0.50 | 0.06 | 89 | 1013.3 |
| 20260506044017 | 51 | 268 | 0.0 | 2.0 | 0.06 | 0.50 | 0.06 | 89 | 1013.2 |
| 20260506043503 | 51 | 212 | 1.0 | 4.0 | 0.03 | 0.47 | 0.03 | 89 | 1013.2 |
| 20260506043017 | 51 | 184 | 2.0 | 5.0 | 0.02 | 0.46 | 0.02 | 89 | 1013.3 |
| 20260506042503 | 51 | 184 | 1.0 | 5.0 | 0.02 | 0.46 | 0.02 | 89 | 1013.2 |
| 20260506042003 | 51 | 327 | 0.0 | 4.0 | 0.01 | 0.45 | 0.01 | 89 | 1013.3 |
| 20260506041503 | 51 | 0 | 0.0 | 0.0 | 0.00 | 0.44 | 0.00 | 89 | 1013.3 |
| 20260506041003 | 51 | 0 | 0.0 | 0.0 | 0.00 | 0.44 | 0.00 | 89 | 1013.2 |
| 20260506040503 | 50 | 0 | 0.0 | 0.0 | 0.00 | 0.44 | 0.00 | 90 | 1013.3 |
| 20260506040003 | 50 | 0 | 0.0 | 0.0 | 0.00 | 0.44 | 0.00 | 90 | 1013.3 |
| 20260506035503 | 50 | 0 | 0.0 | 0.0 | 0.00 | 0.44 | 0.00 | 90 | 1013.3 |
| 20260506035003 | 50 | 0 | 0.0 | 0.0 | 0.00 | 0.44 | 0.00 | 90 | 1013.2 |
| 20260506034503 | 50 | 0 | 0.0 | 0.0 | 0.00 | 0.44 | 0.00 | 90 | 1013.3 |
| 20260506034003 | 50 | 0 | 0.0 | 0.0 | 0.00 | 0.44 | 0.00 | 90 | 1013.3 |
| 20260506033503 | 50 | 0 | 0.0 | 0.0 | 0.00 | 0.45 | 0.00 | 90 | 1013.4 |
| 20260506033003 | 50 | 0 | 0.0 | 0.0 | 0.00 | 0.45 | 0.00 | 89 | 1013.3 |
| 20260506032503 | 51 | 0 | 0.0 | 0.0 | 0.00 | 0.45 | 0.00 | 89 | 1013.3 |
| 20260506032003 | 51 | 0 | 0.0 | 0.0 | 0.00 | 0.45 | 0.00 | 89 | 1013.3 |
| 20260506031503 | 50 | 0 | 0.0 | 0.0 | 0.00 | 0.45 | 0.00 | 89 | 1013.3 |
| 20260506031003 | 50 | 0 | 0.0 | 0.0 | 0.00 | 0.45 | 0.00 | 90 | 1013.4 |
| 20260506030503 | 50 | 0 | 0.0 | 0.0 | 0.00 | 0.45 | 0.00 | 89 | 1013.3 |
| 20260506030003 | 50 | 0 | 0.0 | 0.0 | 0.00 | 0.45 | 0.00 | 89 | 1013.3 |
| 20260506025503 | 50 | 0 | 0.0 | 0.0 | 0.00 | 0.45 | 0.00 | 89 | 1013.3 |
| 20260506025003 | 50 | 0 | 0.0 | 0.0 | 0.00 | 0.45 | 0.00 | 89 | 1013.3 |
| 20260506024503 | 50 | 0 | 0.0 | 0.0 | 0.00 | 0.45 | 0.00 | 89 | 1013.4 |
| 20260506024003 | 50 | 0 | 0.0 | 0.0 | 0.00 | 0.45 | 0.00 | 89 | 1013.4 |
| 20260506023517 | 50 | 0 | 0.0 | 0.0 | 0.00 | 0.45 | 0.00 | 89 | 1013.4 |
| 20260506023003 | 50 | 0 | 0.0 | 0.0 | 0.00 | 0.45 | 0.00 | 89 | 1013.4 |
| 20260506022517 | 50 | 0 | 0.0 | 0.0 | 0.00 | 0.45 | 0.00 | 89 | 1013.5 |
| 20260506022003 | 50 | 0 | 0.0 | 0.0 | 0.00 | 0.45 | 0.00 | 89 | 1014.0 |
| 20260506021503 | 50 | 0 | 0.0 | 0.0 | 0.00 | 0.45 | 0.00 | 89 | 1013.4 |
| 20260506021003 | 50 | 0 | 0.0 | 0.0 | 0.00 | 0.45 | 0.00 | 89 | 1013.5 |
| 20260506020503 | 50 | 0 | 0.0 | 0.0 | 0.00 | 0.45 | 0.00 | 89 | 1013.4 |
| 20260506020003 | 50 | 0 | 0.0 | 0.0 | 0.00 | 0.45 | 0.00 | 89 | 1013.4 |
| 20260506015517 | 50 | 0 | 0.0 | 0.0 | 0.00 | 0.46 | 0.00 | 89 | 1013.5 |
| 20260506015003 | 50 | 0 | 0.0 | 0.0 | 0.00 | 0.46 | 0.00 | 89 | 1013.4 |
| 20260506014517 | 50 | 0 | 0.0 | 0.0 | 0.00 | 0.46 | 0.00 | 89 | 1013.6 |
| 20260506014017 | 50 | 0 | 0.0 | 0.0 | 0.00 | 0.46 | 0.00 | 89 | 1013.6 |
| 20260506013517 | 50 | 0 | 0.0 | 0.0 | 0.00 | 0.46 | 0.00 | 89 | 1013.5 |
| 20260506013003 | 50 | 0 | 0.0 | 0.0 | 0.00 | 0.46 | 0.00 | 89 | 1013.6 |
| 20260506012503 | 50 | 0 | 0.0 | 0.0 | 0.00 | 0.46 | 0.00 | 89 | 1013.6 |
| 20260506012017 | 50 | 0 | 0.0 | 0.0 | 0.00 | 0.46 | 0.00 | 89 | 1013.6 |
| 20260506011503 | 50 | 308 | 0.0 | 1.0 | 0.00 | 0.46 | 0.00 | 89 | 1013.6 |
| 20260506011003 | 50 | 308 | 0.0 | 2.0 | 0.00 | 0.46 | 0.00 | 89 | 1013.6 |
| 20260506010503 | 50 | 308 | 0.0 | 2.0 | 0.00 | 0.46 | 0.00 | 89 | 1013.7 |
| 20260506010003 | 50 | 306 | 0.0 | 2.0 | 0.00 | 0.46 | 0.00 | 89 | 1013.7 |
| 20260506005503 | 50 | 306 | 0.0 | 2.0 | 0.00 | 0.46 | 0.00 | 89 | 1013.9 |
| 20260506005003 | 50 | 306 | 0.0 | 3.0 | 0.00 | 0.46 | 0.00 | 89 | 1013.8 |
| 20260506004504 | 50 | 306 | 0.0 | 3.0 | 0.00 | 0.46 | 0.00 | 89 | 1013.8 |
| 20260506004017 | 50 | 307 | 1.0 | 3.0 | 0.00 | 0.46 | 0.00 | 89 | 1013.9 |
| 20260506003503 | 50 | 308 | 1.0 | 3.0 | 0.00 | 0.46 | 0.00 | 88 | 1014.0 |
| 20260506003003 | 50 | 308 | 1.0 | 3.0 | 0.00 | 0.46 | 0.00 | 89 | 1014.2 |
| 20260506002503 | 50 | 308 | 1.0 | 2.0 | 0.00 | 0.46 | 0.00 | 89 | 1014.1 |
| 20260506002003 | 50 | 308 | 1.0 | 3.0 | 0.00 | 0.46 | 0.00 | 89 | 1014.2 |
| 20260506001503 | 50 | 308 | 1.0 | 3.0 | 0.00 | 0.46 | 0.00 | 89 | 1014.1 |
| 20260506001017 | 50 | 307 | 1.0 | 3.0 | 0.00 | 0.46 | 0.00 | 89 | 1014.1 |
| 20260506000517 | 50 | 302 | 2.0 | 4.0 | 0.00 | 0.46 | 0.00 | 89 | 1014.1 |
| 20260506000003 | 50 | 294 | 1.0 | 4.0 | 0.00 | 0.46 | 0.00 | 89 | 1014.1 |
| 20260505235517 | 50 | 285 | 1.0 | 4.0 | 0.00 | 0.46 | 0.00 | 89 | 1014.1 |
| 20260505235003 | 50 | 289 | 2.0 | 4.0 | 0.00 | 0.46 | 0.00 | 89 | 1014.2 |
| 20260505234503 | 50 | 301 | 1.0 | 4.0 | 0.00 | 0.46 | 0.00 | 89 | 1014.3 |
| 20260505234017 | 50 | 322 | 0.0 | 2.0 | 0.00 | 0.46 | 0.00 | 90 | 1014.3 |
| 20260505233517 | 50 | 322 | 0.0 | 1.0 | 0.00 | 0.46 | 0.00 | 90 | 1014.3 |
| 20260505233003 | 50 | 0 | 0.0 | 0.0 | 0.00 | 0.46 | 0.00 | 89 | 1014.4 |
| 20260505232503 | 50 | 0 | 0.0 | 0.0 | 0.00 | 0.46 | 0.00 | 89 | 1014.3 |
| 20260505232003 | 50 | 0 | 0.0 | 0.0 | 0.00 | 0.46 | 0.00 | 89 | 1014.3 |
| 20260505231503 | 51 | 0 | 0.0 | 0.0 | 0.00 | 0.46 | 0.00 | 89 | 1014.3 |
| 20260505231017 | 50 | 322 | 0.0 | 1.0 | 0.00 | 0.46 | 0.00 | 89 | 1014.3 |
| 20260505230503 | 51 | 322 | 0.0 | 1.0 | 0.00 | 0.47 | 0.00 | 89 | 1014.2 |
| 20260505230003 | 51 | 322 | 0.0 | 1.0 | 0.00 | 0.48 | 0.00 | 89 | 1014.2 |
| 20260505225503 | 51 | 322 | 0.0 | 1.0 | 0.00 | 0.49 | 0.00 | 89 | 1014.2 |
| 20260505225003 | 51 | 319 | 0.0 | 1.0 | 0.00 | 0.49 | 0.00 | 89 | 1014.3 |
| 20260505224503 | 51 | 313 | 1.0 | 3.0 | 0.00 | 0.50 | 0.00 | 89 | 1014.3 |
| 20260505224017 | 51 | 313 | 1.0 | 3.0 | 0.00 | 0.50 | 0.00 | 89 | 1014.3 |
| 20260505223503 | 51 | 313 | 1.0 | 2.0 | 0.00 | 0.50 | 0.00 | 89 | 1014.3 |
| 20260505223003 | 51 | 313 | 0.0 | 2.0 | 0.00 | 0.50 | 0.00 | 89 | 1014.3 |
| 20260505222503 | 51 | 321 | 0.0 | 5.0 | 0.00 | 0.51 | 0.00 | 89 | 1014.4 |
| 20260505222003 | 51 | 325 | 0.0 | 5.0 | 0.00 | 0.52 | 0.00 | 89 | 1014.4 |
| 20260505221503 | 50 | 336 | 0.0 | 1.0 | 0.00 | 0.54 | 0.00 | 90 | 1014.5 |
| 20260505221003 | 50 | 336 | 0.0 | 2.0 | 0.00 | 0.57 | 0.00 | 90 | 1014.6 |
| 20260505220517 | 50 | 336 | 1.0 | 3.0 | 0.00 | 0.57 | 0.00 | 90 | 1014.5 |
| 20260505220003 | 50 | 305 | 2.0 | 4.0 | 0.00 | 0.57 | 0.00 | 90 | 1014.6 |
| 20260505215503 | 50 | 215 | 1.0 | 4.0 | 0.00 | 0.57 | 0.57 | 90 | 1014.8 |
| 20260505215003 | 51 | 179 | 0.0 | 2.0 | 0.00 | 0.57 | 0.57 | 89 | 1014.7 |
| 20260505214503 | 51 | 179 | 0.0 | 1.0 | 0.00 | 0.57 | 0.57 | 90 | 1014.7 |
| 20260505214003 | 50 | 178 | 0.0 | 2.0 | 0.00 | 0.57 | 0.57 | 89 | 1014.6 |
| 20260505213503 | 50 | 179 | 1.0 | 3.0 | 0.00 | 0.57 | 0.57 | 89 | 1014.6 |
| 20260505213017 | 50 | 179 | 1.0 | 4.0 | 0.00 | 0.57 | 0.57 | 89 | 1014.7 |
| 20260505212503 | 50 | 180 | 0.0 | 4.0 | 0.00 | 0.57 | 0.57 | 89 | 1014.7 |
| 20260505212003 | 51 | 0 | 0.0 | 0.0 | 0.00 | 0.57 | 0.57 | 88 | 1014.8 |
| 20260505211503 | 51 | 0 | 0.0 | 0.0 | 0.00 | 0.57 | 0.57 | 88 | 1014.8 |
| 20260505211003 | 51 | 0 | 0.0 | 0.0 | 0.00 | 0.57 | 0.57 | 88 | 1014.8 |
| 20260505210503 | 51 | 0 | 0.0 | 0.0 | 0.00 | 0.57 | 0.57 | 87 | 1014.8 |
| 20260505210003 | 51 | 0 | 0.0 | 0.0 | 0.00 | 0.57 | 0.57 | 87 | 1014.7 |
| 20260505205503 | 51 | 0 | 0.0 | 0.0 | 0.00 | 0.57 | 0.57 | 87 | 1014.7 |
| 20260505205003 | 51 | 0 | 0.0 | 0.0 | 0.00 | 0.58 | 0.57 | 87 | 1014.7 |
| 20260505204503 | 51 | 0 | 0.0 | 0.0 | 0.00 | 0.58 | 0.57 | 87 | 1014.8 |
| 20260505204003 | 51 | 297 | 0.0 | 1.0 | 0.00 | 0.58 | 0.57 | 87 | 1014.7 |
| 20260505203503 | 51 | 297 | 0.0 | 3.0 | 0.00 | 0.58 | 0.57 | 87 | 1014.7 |
| 20260505203003 | 52 | 297 | 1.0 | 3.0 | 0.00 | 0.58 | 0.57 | 87 | 1014.6 |
| 20260505202517 | 52 | 305 | 1.0 | 3.0 | 0.00 | 0.58 | 0.57 | 86 | 1014.7 |
| 20260505202003 | 52 | 324 | 1.0 | 3.0 | 0.00 | 0.60 | 0.57 | 86 | 1014.6 |
| 20260505201503 | 52 | 330 | 1.0 | 3.0 | 0.00 | 0.61 | 0.57 | 86 | 1014.7 |
| 20260505201017 | 52 | 328 | 1.0 | 6.0 | 0.00 | 0.61 | 0.57 | 86 | 1014.6 |
| 20260505200503 | 52 | 327 | 1.0 | 6.0 | 0.00 | 0.62 | 0.57 | 86 | 1014.5 |
| 20260505200003 | 52 | 326 | 1.0 | 4.0 | 0.00 | 0.62 | 0.57 | 86 | 1014.5 |
| 20260505195517 | 52 | 333 | 1.0 | 4.0 | 0.00 | 0.63 | 0.57 | 86 | 1014.5 |
| 20260505195017 | 52 | 155 | 1.0 | 4.0 | 0.00 | 0.64 | 0.57 | 86 | 1014.5 |
| 20260505194503 | 52 | 146 | 1.0 | 4.0 | 0.00 | 0.65 | 0.57 | 86 | 1014.5 |
| 20260505194003 | 53 | 327 | 1.0 | 4.0 | 0.00 | 0.65 | 0.57 | 86 | 1014.5 |
| 20260505193503 | 53 | 275 | 2.0 | 5.0 | 0.01 | 0.65 | 0.57 | 86 | 1014.3 |
| 20260505193003 | 53 | 195 | 2.0 | 5.0 | 0.01 | 0.65 | 0.57 | 86 | 1014.4 |
| 20260505192503 | 53 | 235 | 1.0 | 5.0 | 0.01 | 0.65 | 0.57 | 85 | 1014.4 |
| 20260505192003 | 54 | 316 | 1.0 | 5.0 | 0.01 | 0.66 | 0.57 | 86 | 1014.4 |
| 20260505191503 | 54 | 279 | 1.0 | 5.0 | 0.01 | 0.66 | 0.57 | 86 | 1014.3 |
| 20260505191003 | 54 | 308 | 1.0 | 5.0 | 0.01 | 0.66 | 0.57 | 86 | 1014.3 |
| 20260505190503 | 54 | 318 | 0.0 | 2.0 | 0.01 | 0.66 | 0.57 | 86 | 1014.3 |
| 20260505190003 | 54 | 317 | 0.0 | 2.0 | 0.01 | 0.66 | 0.57 | 86 | 1014.2 |
| 20260505185517 | 54 | 317 | 1.0 | 3.0 | 0.01 | 0.66 | 0.57 | 86 | 1014.1 |
| 20260505185003 | 54 | 317 | 0.0 | 3.0 | 0.01 | 0.66 | 0.57 | 86 | 1014.2 |
| 20260505184517 | 55 | 317 | 0.0 | 2.0 | 0.01 | 0.66 | 0.57 | 86 | 1014.1 |
| 20260505184003 | 55 | 317 | 0.0 | 1.0 | 0.01 | 0.66 | 0.57 | 86 | 1014.1 |
| 20260505183503 | 55 | 311 | 0.0 | 3.0 | 0.00 | 0.65 | 0.57 | 86 | 1014.1 |
| 20260505183003 | 55 | 306 | 0.0 | 3.0 | 0.00 | 0.65 | 0.57 | 86 | 1014.1 |
| 20260505182503 | 55 | 299 | 0.0 | 2.0 | 0.00 | 0.65 | 0.57 | 86 | 1014.0 |
| 20260505182003 | 55 | 299 | 0.0 | 2.0 | 0.00 | 0.65 | 0.57 | 85 | 1013.9 |
| 20260505181503 | 55 | 299 | 0.0 | 1.0 | 0.00 | 0.65 | 0.57 | 85 | 1013.9 |
| 20260505181003 | 55 | 299 | 1.0 | 4.0 | 0.00 | 0.65 | 0.57 | 85 | 1013.9 |
| 20260505180517 | 55 | 296 | 1.0 | 4.0 | 0.00 | 0.65 | 0.57 | 85 | 1013.9 |
| 20260505180003 | 55 | 265 | 1.0 | 4.0 | 0.00 | 0.65 | 0.57 | 85 | 1013.9 |
| 20260505175517 | 55 | 247 | 1.0 | 4.0 | 0.00 | 0.65 | 0.57 | 84 | 1013.8 |
| 20260505175003 | 55 | 204 | 1.0 | 3.0 | 0.00 | 0.65 | 0.57 | 85 | 1013.9 |
| 20260505174503 | 56 | 184 | 0.0 | 3.0 | 0.00 | 0.65 | 0.57 | 85 | 1013.9 |
| 20260505174003 | 56 | 0 | 0.0 | 0.0 | 0.00 | 0.65 | 0.57 | 85 | 1014.0 |
| 20260505173503 | 56 | 189 | 0.0 | 3.0 | 0.00 | 0.65 | 0.57 | 85 | 1014.0 |
| 20260505173003 | 56 | 189 | 0.0 | 3.0 | 0.00 | 0.65 | 0.57 | 85 | 1014.1 |
| 20260505172503 | 56 | 203 | 1.0 | 3.0 | 0.00 | 0.65 | 0.57 | 85 | 1014.0 |
| 20260505172003 | 55 | 209 | 1.0 | 3.0 | 0.00 | 0.65 | 0.57 | 84 | 1014.2 |
| 20260505171503 | 56 | 194 | 1.0 | 3.0 | 0.00 | 0.65 | 0.57 | 85 | 1014.2 |
| 20260505171003 | 56 | 165 | 1.0 | 4.0 | 0.00 | 0.65 | 0.57 | 85 | 1014.3 |
| 20260505170503 | 55 | 175 | 1.0 | 4.0 | 0.00 | 0.65 | 0.57 | 85 | 1014.3 |
| 20260505170003 | 56 | 208 | 2.0 | 6.0 | 0.00 | 0.65 | 0.57 | 84 | 1014.3 |
| 20260505165503 | 56 | 209 | 2.0 | 6.0 | 0.00 | 0.65 | 0.57 | 84 | 1014.3 |
| 20260505165003 | 56 | 167 | 2.0 | 5.0 | 0.00 | 0.65 | 0.57 | 85 | 1014.4 |
| 20260505164503 | 56 | 140 | 1.0 | 5.0 | 0.00 | 0.65 | 0.57 | 86 | 1014.3 |
| 20260505164003 | 56 | 161 | 2.0 | 5.0 | 0.01 | 0.65 | 0.57 | 87 | 1014.2 |
| 20260505163504 | 56 | 172 | 2.0 | 4.0 | 0.02 | 0.65 | 0.57 | 87 | 1014.2 |
| 20260505163107 | 55 | 180 | 1.0 | 4.0 | 0.02 | 0.66 | 0.56 | 88 | 1014.0 |
| 20260505163003 | 55 | 157 | 1.0 | 4.0 | 0.02 | 0.65 | 0.57 | 89 | 1014.3 |
| 20260505162503 | 55 | 337 | 0.0 | 4.0 | 0.03 | 0.65 | 0.57 | 89 | 1014.3 |
| 20260505162003 | 55 | 318 | 0.0 | 2.0 | 0.03 | 0.66 | 0.57 | 89 | 1014.2 |
| 20260505161503 | 54 | 319 | 1.0 | 3.0 | 0.03 | 0.66 | 0.57 | 90 | 1014.2 |
| 20260505161018 | 54 | 319 | 1.0 | 3.0 | 0.03 | 0.66 | 0.57 | 90 | 1014.2 |
| 20260505160503 | 54 | 319 | 0.0 | 3.0 | 0.03 | 0.66 | 0.57 | 89 | 1014.2 |